Time,TemperatureF,DewpointF,PressureIn,WindDirection,WindDirectionDegrees,WindSpeedMPH,WindSpeedGustMPH,Humidity,HourlyPrecipIn,Conditions,Clouds,dailyrainin,SoftwareType,DateUTC
2013-07-24 00:03:00,65.8,53.7,29.91,WNW,284,2.7,3.1,65,0.00,,CLR,0.00,VWS V14.01,2013-07-24 07:03:00,
2013-07-24 00:09:00,65.8,54.2,29.91,NW,312,5.4,5.4,66,0.00,,CLR,0.00,VWS V14.01,2013-07-24 07:09:00,
2013-07-24 00:14:00,65.6,54.0,29.91,NW,324,4.0,5.8,66,0.00,,CLR,0.00,VWS V14.01,2013-07-24 07:14:00,
2013-07-24 00:20:00,65.5,53.8,29.91,WNW,288,3.1,5.8,66,0.00,,CLR,0.00,VWS V14.01,2013-07-24 07:20:00,
2013-07-24 00:25:00,65.5,53.8,29.91,WNW,285,3.1,5.8,66,0.00,,CLR,0.00,VWS V14.01,2013-07-24 07:25:00,
2013-07-24 00:31:00,65.5,54.2,29.91,West,269,3.1,4.0,67,0.00,,CLR,0.00,VWS V14.01,2013-07-24 07:31:00,
2013-07-24 00:37:00,65.3,54.1,29.91,NNW,333,2.7,4.0,67,0.00,,CLR,0.00,VWS V14.01,2013-07-24 07:37:00,
2013-07-24 00:42:00,65.3,54.1,29.91,NW,320,2.7,4.0,67,0.00,,CLR,0.00,VWS V14.01,2013-07-24 07:42:00,
2013-07-24 00:47:00,65.3,54.1,29.91,NNW,343,3.1,4.9,67,0.00,,CLR,0.00,VWS V14.01,2013-07-24 07:47:00,
2013-07-24 00:52:00,65.1,53.9,29.91,WNW,299,2.2,5.4,67,0.00,,CLR,0.00,VWS V14.01,2013-07-24 07:52:00,
2013-07-24 00:57:00,65.1,53.9,29.91,NNW,329,5.8,5.8,67,0.00,,CLR,0.00,VWS V14.01,2013-07-24 07:57:00,
2013-07-24 01:03:00,65.1,54.3,29.91,WNW,289,0.0,0.0,68,0.00,,CLR,0.00,VWS V14.01,2013-07-24 08:03:00,
2013-07-24 01:09:00,64.9,54.1,29.91,NW,325,2.7,3.6,68,0.00,,CLR,0.00,VWS V14.01,2013-07-24 08:09:00,
2013-07-24 01:14:00,64.9,54.1,29.91,WNW,294,2.7,2.7,68,0.00,,CLR,0.00,VWS V14.01,2013-07-24 08:14:00,
2013-07-24 01:19:00,64.9,54.1,29.94,NNW,342,2.7,3.1,68,0.00,,CLR,0.00,VWS V14.01,2013-07-24 08:19:00,
2013-07-24 01:24:00,64.7,54.0,29.94,North,353,4.0,4.0,68,0.00,,CLR,0.00,VWS V14.01,2013-07-24 08:24:00,
2013-07-24 01:30:00,64.7,54.0,29.94,NW,311,3.6,3.6,68,0.00,,CLR,0.00,VWS V14.01,2013-07-24 08:30:00,
2013-07-24 01:35:00,64.7,54.3,29.91,NW,308,0.0,4.0,69,0.00,,FEW009,0.00,VWS V14.01,2013-07-24 08:35:00,
2013-07-24 01:41:00,64.7,54.3,29.91,WNW,292,4.0,4.0,69,0.00,,FEW009,0.00,VWS V14.01,2013-07-24 08:41:00,
2013-07-24 01:47:00,64.7,54.7,29.91,WNW,286,5.4,5.4,70,0.00,,FEW009,0.00,VWS V14.01,2013-07-24 08:47:00,
2013-07-24 01:52:00,64.7,54.7,29.91,WNW,292,5.4,5.4,70,0.00,,BKN009,0.00,VWS V14.01,2013-07-24 08:52:00,
2013-07-24 01:57:00,64.7,54.7,29.91,WNW,286,4.9,4.9,70,0.00,,BKN009,0.00,VWS V14.01,2013-07-24 08:57:00,
2013-07-24 02:02:00,64.7,54.7,29.91,West,278,3.1,5.8,70,0.00,,BKN009,0.00,VWS V14.01,2013-07-24 09:02:00,
2013-07-24 02:08:00,64.6,54.6,29.91,West,268,2.7,2.7,70,0.00,,BKN009,0.00,VWS V14.01,2013-07-24 09:08:00,
2013-07-24 02:13:00,64.7,54.7,29.91,NNW,343,3.1,3.1,70,0.00,,BKN009,0.00,VWS V14.01,2013-07-24 09:13:00,
2013-07-24 02:18:00,64.7,54.7,29.91,NNW,334,2.7,4.0,70,0.00,,BKN009,0.00,VWS V14.01,2013-07-24 09:18:00,
2013-07-24 02:23:00,64.7,54.7,29.91,NW,326,4.0,4.0,70,0.00,,BKN009,0.00,VWS V14.01,2013-07-24 09:23:00,
2013-07-24 02:29:00,64.9,54.9,29.91,NW,307,4.0,4.9,70,0.00,,BKN009,0.00,VWS V14.01,2013-07-24 09:29:00,
2013-07-24 02:34:00,64.9,55.3,29.91,North,0,2.7,3.6,71,0.00,,BKN009,0.00,VWS V14.01,2013-07-24 09:34:00,
2013-07-24 02:40:00,64.9,55.3,29.91,North,353,5.8,5.8,71,0.00,,OVC009,0.00,VWS V14.01,2013-07-24 09:40:00,
2013-07-24 02:45:00,64.9,55.3,29.91,NNW,327,3.6,4.0,71,0.00,,OVC009,0.00,VWS V14.01,2013-07-24 09:45:00,
2013-07-24 02:51:00,64.9,55.3,29.91,WNW,303,6.3,6.3,71,0.00,,OVC009,0.00,VWS V14.01,2013-07-24 09:51:00,
2013-07-24 02:57:00,64.9,55.3,29.91,WNW,301,4.0,6.3,71,0.00,,OVC009,0.00,VWS V14.01,2013-07-24 09:57:00,
2013-07-24 03:02:00,64.9,55.3,29.91,NW,326,3.1,4.0,71,0.00,,OVC009,0.00,VWS V14.01,2013-07-24 10:02:00,
2013-07-24 03:08:00,64.7,55.1,29.91,North,0,2.7,3.6,71,0.00,,OVC009,0.00,VWS V14.01,2013-07-24 10:08:00,
2013-07-24 03:13:00,64.7,55.1,29.91,NNW,336,3.6,4.9,71,0.00,,OVC009,0.00,VWS V14.01,2013-07-24 10:13:00,
2013-07-24 03:18:00,64.7,55.1,29.91,NNW,335,3.6,3.6,71,0.00,,OVC009,0.00,VWS V14.01,2013-07-24 10:18:00,
2013-07-24 03:23:00,64.7,55.1,29.91,West,266,3.6,3.6,71,0.00,,OVC009,0.00,VWS V14.01,2013-07-24 10:23:00,
2013-07-24 03:29:00,64.7,55.1,29.91,West,278,5.4,5.4,71,0.00,,OVC009,0.00,VWS V14.01,2013-07-24 10:29:00,
2013-07-24 03:34:00,64.7,55.1,29.91,WNW,287,5.4,5.4,71,0.00,,OVC009,0.00,VWS V14.01,2013-07-24 10:34:00,
2013-07-24 03:40:00,64.6,54.6,29.91,WNW,300,3.6,5.4,70,0.00,,OVC009,0.00,VWS V14.01,2013-07-24 10:40:00,
2013-07-24 03:46:00,64.6,54.6,29.91,West,277,4.0,4.0,70,0.00,,OVC009,0.00,VWS V14.01,2013-07-24 10:46:00,
2013-07-24 03:51:00,64.6,54.6,29.91,NNW,333,4.0,4.0,70,0.00,,OVC009,0.00,VWS V14.01,2013-07-24 10:51:00,
2013-07-24 03:57:00,64.6,54.6,29.91,WNW,284,2.2,4.0,70,0.00,,OVC009,0.00,VWS V14.01,2013-07-24 10:57:00,
2013-07-24 04:02:00,64.4,54.4,29.91,WNW,291,5.4,5.4,70,0.00,,OVC009,0.00,VWS V14.01,2013-07-24 11:02:00,
2013-07-24 04:08:00,64.4,54.4,29.91,WNW,302,5.4,5.8,70,0.00,,OVC009,0.00,VWS V14.01,2013-07-24 11:08:00,
2013-07-24 04:13:00,64.2,54.2,29.91,WNW,302,5.4,6.3,70,0.00,,OVC009,0.00,VWS V14.01,2013-07-24 11:13:00,
2013-07-24 04:19:00,64.2,54.6,29.91,WNW,297,0.0,3.1,71,0.00,,OVC009,0.00,VWS V14.01,2013-07-24 11:19:00,
2013-07-24 04:24:00,64.2,54.6,29.91,NW,312,4.0,4.0,71,0.00,,OVC009,0.00,VWS V14.01,2013-07-24 11:24:00,
2013-07-24 04:29:00,64.2,54.6,29.91,WNW,287,3.6,5.4,71,0.00,,OVC009,0.00,VWS V14.01,2013-07-24 11:29:00,
2013-07-24 04:35:00,64.2,54.6,29.91,WNW,300,2.7,4.5,71,0.00,,OVC009,0.00,VWS V14.01,2013-07-24 11:35:00,
2013-07-24 04:40:00,64.2,54.6,29.91,WNW,301,2.7,5.4,71,0.00,,OVC009,0.00,VWS V14.01,2013-07-24 11:40:00,
2013-07-24 04:46:00,64.0,54.4,29.91,WNW,289,3.6,3.6,71,0.00,,OVC009,0.00,VWS V14.01,2013-07-24 11:46:00,
2013-07-24 04:51:00,64.0,54.4,29.91,NW,310,4.0,5.4,71,0.00,,OVC009,0.00,VWS V14.01,2013-07-24 11:51:00,
2013-07-24 04:57:00,64.0,54.8,29.91,NNW,341,4.0,5.4,72,0.00,,OVC009,0.00,VWS V14.01,2013-07-24 11:57:00,
2013-07-24 05:03:00,63.8,54.7,29.91,NW,324,3.6,3.6,72,0.00,,OVC009,0.00,VWS V14.01,2013-07-24 12:03:00,
2013-07-24 05:08:00,63.8,54.7,29.91,NNW,335,5.4,5.4,72,0.00,,OVC009,0.00,VWS V14.01,2013-07-24 12:08:00,
2013-07-24 05:14:00,63.8,54.7,29.91,NNW,348,3.1,5.4,72,0.00,,OVC009,0.00,VWS V14.01,2013-07-24 12:14:00,
2013-07-24 05:19:00,63.8,54.7,29.91,NNE,17,2.7,3.1,72,0.00,,OVC009,0.00,VWS V14.01,2013-07-24 12:19:00,
2013-07-24 05:25:00,63.8,55.0,29.91,North,353,3.1,4.0,73,0.00,,OVC009,0.00,VWS V14.01,2013-07-24 12:25:00,
2013-07-24 05:30:00,63.8,55.0,29.91,NNW,331,4.0,4.5,73,0.00,,OVC009,0.00,VWS V14.01,2013-07-24 12:30:00,
2013-07-24 05:36:00,63.8,55.0,29.91,NNW,331,3.1,3.1,73,0.00,,OVC009,0.00,VWS V14.01,2013-07-24 12:36:00,
2013-07-24 05:42:00,63.8,55.0,29.91,NNW,334,0.0,0.0,73,0.00,,OVC009,0.00,VWS V14.01,2013-07-24 12:42:00,
2013-07-24 05:47:00,64.0,55.6,29.91,North,353,0.0,2.7,74,0.00,,OVC009,0.00,VWS V14.01,2013-07-24 12:47:00,
2013-07-24 05:53:00,64.0,55.6,29.91,NNW,346,3.1,3.6,74,0.00,,OVC007,0.00,VWS V14.01,2013-07-24 12:53:00,
2013-07-24 05:59:00,64.0,55.6,29.91,West,270,2.7,2.7,74,0.00,,OVC007,0.00,VWS V14.01,2013-07-24 12:59:00,
2013-07-24 06:04:00,64.0,55.6,29.91,NNW,335,2.7,3.1,74,0.00,,OVC007,0.00,VWS V14.01,2013-07-24 13:04:00,
2013-07-24 06:10:00,64.2,55.4,29.91,NW,317,3.1,3.1,73,0.00,,OVC007,0.00,VWS V14.01,2013-07-24 13:10:00,
2013-07-24 06:15:00,64.2,55.4,29.91,NW,323,2.7,4.0,73,0.00,,OVC007,0.00,VWS V14.01,2013-07-24 13:15:00,
2013-07-24 06:21:00,64.2,55.4,29.91,NNW,345,3.6,3.6,73,0.00,,OVC007,0.00,VWS V14.01,2013-07-24 13:21:00,
2013-07-24 06:27:00,64.4,55.5,29.91,NNW,346,4.0,4.0,73,0.00,,OVC007,0.00,VWS V14.01,2013-07-24 13:27:00,
2013-07-24 06:32:00,64.4,55.5,29.91,North,353,3.1,4.0,73,0.00,,OVC007,0.00,VWS V14.01,2013-07-24 13:32:00,
2013-07-24 06:38:00,64.4,55.5,29.91,NNW,346,3.1,4.0,73,0.00,,OVC007,0.00,VWS V14.01,2013-07-24 13:38:00,
2013-07-24 06:43:00,64.4,55.5,29.91,NNW,337,0.0,0.0,73,0.00,,OVC007,0.00,VWS V14.01,2013-07-24 13:43:00,
2013-07-24 06:49:00,64.6,55.7,29.91,North,4,2.7,2.7,73,0.00,,OVC007,0.00,VWS V14.01,2013-07-24 13:49:00,
2013-07-24 06:55:00,64.7,55.5,29.91,SW,233,2.7,3.1,72,0.00,,OVC007,0.00,VWS V14.01,2013-07-24 13:55:00,
2013-07-24 07:00:00,64.9,55.7,29.91,SW,234,2.7,3.1,72,0.00,,OVC007,0.00,VWS V14.01,2013-07-24 14:00:00,
2013-07-24 07:05:00,64.9,55.7,29.91,WNW,290,2.2,3.6,72,0.00,,OVC007,0.00,VWS V14.01,2013-07-24 14:05:00,
2013-07-24 07:10:00,64.9,55.7,29.91,West,272,0.0,3.1,72,0.00,,OVC007,0.00,VWS V14.01,2013-07-24 14:10:00,
2013-07-24 07:15:00,64.9,55.7,29.91,WNW,300,3.6,3.6,72,0.00,,OVC007,0.00,VWS V14.01,2013-07-24 14:15:00,
2013-07-24 07:20:00,65.1,55.9,29.91,West,270,0.0,2.7,72,0.00,,OVC007,0.00,VWS V14.01,2013-07-24 14:20:00,
2013-07-24 07:26:00,65.3,56.0,29.91,NNW,332,4.0,4.0,72,0.00,,OVC007,0.00,VWS V14.01,2013-07-24 14:26:00,
2013-07-24 07:31:00,65.3,56.0,29.91,WNW,298,0.0,0.0,72,0.00,,OVC007,0.00,VWS V14.01,2013-07-24 14:31:00,
2013-07-24 07:47:00,65.5,55.8,29.91,NNW,342,2.2,2.2,71,0.00,,,0.00,VWS V14.01,2013-07-24 14:47:00,
2013-07-24 07:53:00,65.5,55.8,29.91,WSW,255,2.7,4.0,71,0.00,,OVC009,0.00,VWS V14.01,2013-07-24 14:53:00,
2013-07-24 07:59:00,65.5,55.4,29.91,WNW,295,3.6,4.0,70,0.00,,OVC009,0.00,VWS V14.01,2013-07-24 14:59:00,
2013-07-24 08:05:00,65.8,55.8,29.91,North,6,0.0,3.1,70,0.00,,OVC009,0.00,VWS V14.01,2013-07-24 15:05:00,
2013-07-24 08:10:00,66.0,56.0,29.91,North,1,0.0,2.7,70,0.00,,OVC009,0.00,VWS V14.01,2013-07-24 15:10:00,
2013-07-24 08:16:00,66.2,55.7,29.91,North,357,5.8,5.8,69,0.00,,OVC009,0.00,VWS V14.01,2013-07-24 15:16:00,
2013-07-24 08:21:00,66.2,55.3,29.91,WSW,237,4.5,4.5,68,0.00,,OVC009,0.00,VWS V14.01,2013-07-24 15:21:00,
2013-07-24 08:27:00,66.4,55.1,29.91,WSW,240,2.7,2.7,67,0.00,,OVC009,0.00,VWS V14.01,2013-07-24 15:27:00,
2013-07-24 08:33:00,66.5,54.8,29.91,WNW,300,4.0,4.0,66,0.00,,OVC009,0.00,VWS V14.01,2013-07-24 15:33:00,
2013-07-24 08:38:00,66.7,55.0,29.91,NNW,327,2.7,2.7,66,0.00,,,0.00,VWS V14.01,2013-07-24 15:38:00,
2013-07-24 08:43:00,66.9,54.8,29.91,NNW,333,0.0,0.0,65,0.00,,,0.00,VWS V14.01,2013-07-24 15:43:00,
2013-07-24 08:48:00,67.1,54.5,29.91,SW,215,0.0,3.1,64,0.00,,,0.00,VWS V14.01,2013-07-24 15:48:00,
2013-07-24 08:53:00,67.1,54.1,29.91,West,263,4.0,5.4,63,0.00,,,0.00,VWS V14.01,2013-07-24 15:53:00,
2013-07-24 08:59:00,67.1,54.1,29.91,NW,318,3.6,3.6,63,0.00,,,0.00,VWS V14.01,2013-07-24 15:59:00,
2013-07-24 09:04:00,67.1,53.6,29.91,WNW,289,2.7,4.0,62,0.00,,,0.00,VWS V14.01,2013-07-24 16:04:00,
2013-07-24 09:10:00,67.3,53.4,29.91,WNW,292,3.1,5.8,61,0.00,,,0.00,VWS V14.01,2013-07-24 16:10:00,
2013-07-24 09:16:00,67.6,53.3,29.91,NNW,330,2.7,5.8,60,0.00,,,0.00,VWS V14.01,2013-07-24 16:16:00,
2013-07-24 09:22:00,68.0,53.1,29.91,WSW,251,4.5,4.5,59,0.00,,,0.00,VWS V14.01,2013-07-24 16:22:00,
2013-07-24 09:27:00,67.8,51.5,29.91,SSW,212,5.4,5.4,56,0.00,,,0.00,VWS V14.01,2013-07-24 16:27:00,
2013-07-24 09:32:00,68.7,53.3,29.91,NW,321,3.6,3.6,58,0.00,,,0.00,VWS V14.01,2013-07-24 16:32:00,
2013-07-24 09:37:00,69.2,52.9,29.91,WNW,292,5.8,5.8,56,0.00,,,0.00,VWS V14.01,2013-07-24 16:37:00,
2013-07-24 09:43:00,69.8,51.4,29.91,SW,219,0.0,0.0,52,0.00,,,0.00,VWS V14.01,2013-07-24 16:43:00,
2013-07-24 09:48:00,70.5,50.4,29.91,West,281,5.8,5.8,49,0.00,,,0.00,VWS V14.01,2013-07-24 16:48:00,
2013-07-24 09:53:00,71.4,50.1,29.91,North,353,2.2,2.7,47,0.00,,,0.00,VWS V14.01,2013-07-24 16:53:00,
2013-07-24 09:58:00,72.1,49.6,29.91,NNE,24,4.0,4.0,45,0.00,,,0.00,VWS V14.01,2013-07-24 16:58:00,
2013-07-24 10:03:00,72.7,48.9,29.91,West,265,4.9,5.4,43,0.00,,,0.00,VWS V14.01,2013-07-24 17:03:00,
2013-07-24 10:09:00,72.8,48.4,29.91,NW,312,3.6,5.8,42,0.00,,,0.00,VWS V14.01,2013-07-24 17:09:00,
2013-07-24 10:15:00,73.4,47.6,29.91,WNW,295,7.6,7.6,40,0.00,,,0.00,VWS V14.01,2013-07-24 17:15:00,
2013-07-24 10:20:00,73.9,48.1,29.91,SW,226,3.1,4.0,40,0.00,,,0.00,VWS V14.01,2013-07-24 17:20:00,
2013-07-24 10:26:00,74.6,48.1,29.91,South,184,3.6,4.0,39,0.00,,,0.00,VWS V14.01,2013-07-24 17:26:00,
2013-07-24 10:32:00,74.3,45.6,29.91,NW,308,5.4,5.4,36,0.00,,,0.00,VWS V14.01,2013-07-24 17:32:00,
2013-07-24 10:37:00,75.0,46.3,29.91,SSW,211,3.1,3.1,36,0.00,,SCT013,0.00,VWS V14.01,2013-07-24 17:37:00,
2013-07-24 10:42:00,75.4,45.8,29.91,West,271,3.6,6.3,35,0.00,,SCT013,0.00,VWS V14.01,2013-07-24 17:42:00,
2013-07-24 10:47:00,76.3,46.6,29.91,SSW,199,3.6,3.6,35,0.00,,SCT013,0.00,VWS V14.01,2013-07-24 17:47:00,
2013-07-24 10:52:00,77.2,45.9,29.91,South,187,0.0,4.0,33,0.00,,SCT013,0.00,VWS V14.01,2013-07-24 17:52:00,
2013-07-24 10:58:00,77.5,45.4,29.91,NNW,331,2.7,4.9,32,0.00,,SCT013,0.00,VWS V14.01,2013-07-24 17:58:00,
2013-07-24 11:03:00,77.9,44.8,29.91,WSW,258,4.0,6.3,31,0.00,,SCT013,0.00,VWS V14.01,2013-07-24 18:03:00,
2013-07-24 11:08:00,79.0,45.8,29.91,South,173,0.0,4.0,31,0.00,,SCT013,0.00,VWS V14.01,2013-07-24 18:08:00,
2013-07-24 11:14:00,79.9,45.7,29.91,South,187,0.0,3.6,30,0.00,,SCT013,0.00,VWS V14.01,2013-07-24 18:14:00,
2013-07-24 11:19:00,78.1,45.0,29.91,WSW,240,5.4,5.4,31,0.00,,SCT013,0.00,VWS V14.01,2013-07-24 18:19:00,
2013-07-24 11:24:00,78.1,45.0,29.91,West,272,4.9,4.9,31,0.00,,SCT013,0.00,VWS V14.01,2013-07-24 18:24:00,
2013-07-24 11:29:00,79.7,46.4,29.91,SSW,198,5.4,5.4,31,0.00,,SCT013,0.00,VWS V14.01,2013-07-24 18:29:00,
2013-07-24 11:35:00,79.5,45.4,29.91,WNW,300,4.0,4.0,30,0.00,,SCT013,0.00,VWS V14.01,2013-07-24 18:35:00,
2013-07-24 11:41:00,81.3,46.0,29.91,WSW,257,4.9,4.9,29,0.00,,CLR,0.00,VWS V14.01,2013-07-24 18:41:00,
2013-07-24 11:46:00,81.7,46.3,29.91,West,264,3.6,4.9,29,0.00,,CLR,0.00,VWS V14.01,2013-07-24 18:46:00,
2013-07-24 11:52:00,82.4,45.1,29.91,South,170,4.9,5.8,27,0.00,,CLR,0.00,VWS V14.01,2013-07-24 18:52:00,
2013-07-24 11:57:00,82.4,45.1,29.91,SE,125,5.4,5.4,27,0.00,,CLR,0.00,VWS V14.01,2013-07-24 18:57:00,
2013-07-24 12:03:00,82.9,43.5,29.91,SSW,193,3.6,5.8,25,0.00,,CLR,0.00,VWS V14.01,2013-07-24 19:03:00,
2013-07-24 12:08:00,81.5,41.2,29.91,WSW,253,6.3,6.3,24,0.00,,CLR,0.00,VWS V14.01,2013-07-24 19:08:00,
2013-07-24 12:14:00,83.8,44.3,29.91,WNW,283,0.0,0.0,25,0.00,,CLR,0.00,VWS V14.01,2013-07-24 19:14:00,
2013-07-24 12:19:00,85.1,42.0,29.91,WNW,285,0.0,2.7,22,0.00,,CLR,0.00,VWS V14.01,2013-07-24 19:19:00,
2013-07-24 12:25:00,81.8,40.5,29.91,WSW,258,6.3,10.1,23,0.00,,CLR,0.00,VWS V14.01,2013-07-24 19:25:00,
2013-07-24 12:30:00,82.2,41.8,29.91,WSW,251,3.1,7.6,24,0.00,,CLR,0.00,VWS V14.01,2013-07-24 19:30:00,
2013-07-24 12:35:00,82.9,42.5,29.88,WSW,250,7.6,7.6,24,0.00,,CLR,0.00,VWS V14.01,2013-07-24 19:35:00,
2013-07-24 12:40:00,83.8,42.1,29.88,WSW,252,7.6,8.3,23,0.00,,CLR,0.00,VWS V14.01,2013-07-24 19:40:00,
2013-07-24 12:46:00,82.7,40.1,29.88,West,262,5.4,7.6,22,0.00,,CLR,0.00,VWS V14.01,2013-07-24 19:46:00,
2013-07-24 12:52:00,80.4,39.2,29.88,West,279,6.3,8.3,23,0.00,,CLR,0.00,VWS V14.01,2013-07-24 19:52:00,
2013-07-24 12:57:00,80.9,42.9,29.88,WNW,291,7.6,10.5,26,0.00,,CLR,0.00,VWS V14.01,2013-07-24 19:57:00,
2013-07-24 13:02:00,81.5,41.2,29.88,WNW,284,8.3,10.5,24,0.00,,CLR,0.00,VWS V14.01,2013-07-24 20:02:00,
2013-07-24 13:07:00,82.0,41.7,29.88,WNW,299,5.8,5.8,24,0.00,,CLR,0.00,VWS V14.01,2013-07-24 20:07:00,
2013-07-24 13:13:00,82.4,40.9,29.88,NW,309,6.3,8.7,23,0.00,,CLR,0.00,VWS V14.01,2013-07-24 20:13:00,
2013-07-24 13:18:00,81.5,42.3,29.88,West,280,5.4,8.1,25,0.00,,CLR,0.00,VWS V14.01,2013-07-24 20:18:00,
2013-07-24 13:24:00,81.3,42.2,29.88,WSW,248,7.6,7.6,25,0.00,,CLR,0.00,VWS V14.01,2013-07-24 20:24:00,
2013-07-24 13:30:00,81.3,42.2,29.88,NW,320,6.3,8.3,25,0.00,,CLR,0.00,VWS V14.01,2013-07-24 20:30:00,
2013-07-24 13:35:00,81.3,43.2,29.88,North,0,3.6,5.8,26,0.00,,CLR,0.00,VWS V14.01,2013-07-24 20:35:00,
2013-07-24 13:41:00,81.3,41.1,29.88,NW,316,8.3,8.7,24,0.00,,CLR,0.00,VWS V14.01,2013-07-24 20:41:00,
2013-07-24 13:46:00,80.9,41.8,29.88,NNW,337,4.9,8.7,25,0.00,,CLR,0.00,VWS V14.01,2013-07-24 20:46:00,
2013-07-24 13:51:00,81.5,42.3,29.88,NW,313,6.3,7.6,25,0.00,,CLR,0.00,VWS V14.01,2013-07-24 20:51:00,
2013-07-24 13:56:00,80.4,42.4,29.88,WNW,294,8.7,10.1,26,0.00,,CLR,0.00,VWS V14.01,2013-07-24 20:56:00,
2013-07-24 14:02:00,80.4,42.4,29.88,WSW,243,7.2,8.7,26,0.00,,CLR,0.00,VWS V14.01,2013-07-24 21:02:00,
2013-07-24 14:07:00,81.1,43.0,29.88,WNW,301,4.9,7.2,26,0.00,,CLR,0.00,VWS V14.01,2013-07-24 21:07:00,
2013-07-24 14:13:00,79.5,41.7,29.88,West,272,5.4,10.5,26,0.00,,CLR,0.00,VWS V14.01,2013-07-24 21:13:00,
2013-07-24 14:18:00,79.5,43.6,29.88,WNW,291,4.9,7.6,28,0.00,,CLR,0.00,VWS V14.01,2013-07-24 21:18:00,
2013-07-24 14:24:00,79.9,43.9,29.88,NW,313,4.9,7.6,28,0.00,,CLR,0.00,VWS V14.01,2013-07-24 21:24:00,
2013-07-24 14:29:00,79.7,41.8,29.88,WNW,303,8.1,12.8,26,0.00,,CLR,0.00,VWS V14.01,2013-07-24 21:29:00,
2013-07-24 14:35:00,80.8,42.7,29.88,West,277,4.9,5.8,26,0.00,,CLR,0.00,VWS V14.01,2013-07-24 21:35:00,
2013-07-24 14:40:00,81.1,43.0,29.88,West,265,5.4,5.4,26,0.00,,CLR,0.00,VWS V14.01,2013-07-24 21:40:00,
2013-07-24 14:45:00,78.8,42.0,29.88,WSW,252,5.4,9.6,27,0.00,,CLR,0.00,VWS V14.01,2013-07-24 21:45:00,
2013-07-24 14:51:00,80.6,44.5,29.88,West,261,8.1,8.1,28,0.00,,CLR,0.00,VWS V14.01,2013-07-24 21:51:00,
2013-07-24 14:56:00,80.0,45.0,29.88,WSW,252,5.4,8.7,29,0.00,,CLR,0.00,VWS V14.01,2013-07-24 21:56:00,
2013-07-24 15:01:00,79.5,44.5,29.88,WNW,298,8.7,8.7,29,0.00,,CLR,0.00,VWS V14.01,2013-07-24 22:01:00,
2013-07-24 15:06:00,80.6,43.5,29.85,WNW,293,10.1,10.1,27,0.00,,CLR,0.00,VWS V14.01,2013-07-24 22:06:00,
2013-07-24 15:12:00,81.7,43.5,29.85,NW,306,8.3,8.3,26,0.00,,CLR,0.00,VWS V14.01,2013-07-24 22:12:00,
2013-07-24 15:17:00,82.4,43.1,29.85,WNW,299,5.8,5.8,25,0.00,,CLR,0.00,VWS V14.01,2013-07-24 22:17:00,
2013-07-24 15:23:00,81.3,43.2,29.85,WNW,295,3.1,9.2,26,0.00,,CLR,0.00,VWS V14.01,2013-07-24 22:23:00,
2013-07-24 15:29:00,81.7,43.5,29.85,NNW,327,5.4,8.1,26,0.00,,CLR,0.00,VWS V14.01,2013-07-24 22:29:00,
2013-07-24 15:34:00,81.5,41.2,29.85,West,269,6.3,7.6,24,0.00,,CLR,0.00,VWS V14.01,2013-07-24 22:34:00,
2013-07-24 15:40:00,82.6,41.0,29.85,WNW,291,5.8,6.3,23,0.00,,CLR,0.00,VWS V14.01,2013-07-24 22:40:00,
2013-07-24 15:45:00,82.4,42.0,29.85,NW,312,7.6,7.6,24,0.00,,CLR,0.00,VWS V14.01,2013-07-24 22:45:00,
2013-07-24 15:51:00,80.9,41.8,29.85,WNW,302,5.8,8.3,25,0.00,,CLR,0.00,VWS V14.01,2013-07-24 22:51:00,
2013-07-24 15:56:00,79.5,41.7,29.85,WSW,251,5.8,10.5,26,0.00,,CLR,0.00,VWS V14.01,2013-07-24 22:56:00,
2013-07-24 16:02:00,80.0,45.0,29.85,NW,307,8.1,8.1,29,0.00,,CLR,0.00,VWS V14.01,2013-07-24 23:02:00,
2013-07-24 16:07:00,80.4,42.4,29.85,NW,306,5.8,8.1,26,0.00,,CLR,0.00,VWS V14.01,2013-07-24 23:07:00,
2013-07-24 16:12:00,81.5,42.3,29.85,WNW,283,8.1,8.3,25,0.00,,CLR,0.00,VWS V14.01,2013-07-24 23:12:00,
2013-07-24 16:18:00,78.6,43.7,29.85,WSW,245,5.8,7.6,29,0.00,,CLR,0.00,VWS V14.01,2013-07-24 23:18:00,
2013-07-24 16:23:00,80.0,44.0,29.85,NNW,343,6.3,7.6,28,0.00,,CLR,0.00,VWS V14.01,2013-07-24 23:23:00,
2013-07-24 16:29:00,80.6,42.6,29.85,West,265,8.1,8.7,26,0.00,,CLR,0.00,VWS V14.01,2013-07-24 23:29:00,
2013-07-24 16:34:00,79.1,43.3,29.85,NW,319,7.6,8.1,28,0.00,,CLR,0.00,VWS V14.01,2013-07-24 23:34:00,
2013-07-24 16:40:00,79.0,44.0,29.85,NW,306,6.3,8.3,29,0.00,,CLR,0.00,VWS V14.01,2013-07-24 23:40:00,
2013-07-24 16:45:00,79.0,44.0,29.85,NW,326,6.3,8.3,29,0.00,,CLR,0.00,VWS V14.01,2013-07-24 23:45:00,
2013-07-24 16:51:00,76.8,43.9,29.85,NW,310,4.0,5.8,31,0.00,,CLR,0.00,VWS V14.01,2013-07-24 23:51:00,
2013-07-24 16:57:00,79.0,44.9,29.85,West,281,5.8,8.7,30,0.00,,CLR,0.00,VWS V14.01,2013-07-24 23:57:00,
2013-07-24 17:02:00,77.0,43.2,29.85,West,280,5.8,8.1,30,0.00,,CLR,0.00,VWS V14.01,2013-07-25 00:02:00,
2013-07-24 17:08:00,76.6,43.8,29.85,WNW,294,5.4,9.2,31,0.00,,CLR,0.00,VWS V14.01,2013-07-25 00:08:00,
2013-07-24 17:13:00,78.1,45.0,29.85,NW,304,7.6,8.3,31,0.00,,CLR,0.00,VWS V14.01,2013-07-25 00:13:00,
2013-07-24 17:19:00,77.3,44.4,29.85,West,272,8.7,8.7,31,0.00,,CLR,0.00,VWS V14.01,2013-07-25 00:19:00,
2013-07-24 17:25:00,76.4,44.4,29.85,West,263,8.1,8.3,32,0.00,,CLR,0.00,VWS V14.01,2013-07-25 00:25:00,
2013-07-24 17:30:00,76.3,45.1,29.85,NW,312,6.3,8.3,33,0.00,,CLR,0.00,VWS V14.01,2013-07-25 00:30:00,
2013-07-24 17:36:00,76.4,44.4,29.85,NNW,327,4.0,9.6,32,0.00,,CLR,0.00,VWS V14.01,2013-07-25 00:36:00,
2013-07-24 17:41:00,76.1,44.1,29.85,West,273,8.3,8.7,32,0.00,,CLR,0.00,VWS V14.01,2013-07-25 00:41:00,
2013-07-24 17:46:00,75.9,44.8,29.85,NW,314,6.3,7.6,33,0.00,,CLR,0.00,VWS V14.01,2013-07-25 00:46:00,
2013-07-24 17:51:00,76.8,43.9,29.83,WNW,288,8.7,8.7,31,0.00,,CLR,0.00,VWS V14.01,2013-07-25 00:51:00,
2013-07-24 17:57:00,75.4,43.5,29.83,West,268,7.6,7.6,32,0.00,,CLR,0.00,VWS V14.01,2013-07-25 00:57:00,
2013-07-24 18:03:00,75.2,44.1,29.85,NW,312,2.7,7.6,33,0.00,,CLR,0.00,VWS V14.01,2013-07-25 01:03:00,
2013-07-24 18:08:00,75.2,43.3,29.85,NNW,335,7.6,8.3,32,0.00,,CLR,0.00,VWS V14.01,2013-07-25 01:08:00,
2013-07-24 18:14:00,73.4,43.3,29.85,WSW,257,6.7,6.7,34,0.00,,CLR,0.00,VWS V14.01,2013-07-25 01:14:00,
2013-07-24 18:19:00,73.7,43.7,29.85,SW,225,5.4,7.6,34,0.00,,CLR,0.00,VWS V14.01,2013-07-25 01:19:00,
2013-07-24 18:24:00,73.6,43.5,29.85,West,265,3.1,8.1,34,0.00,,CLR,0.00,VWS V14.01,2013-07-25 01:24:00,
2013-07-24 18:29:00,73.6,44.2,29.85,WSW,238,3.1,6.3,35,0.00,,CLR,0.00,VWS V14.01,2013-07-25 01:29:00,
2013-07-24 18:35:00,72.7,43.5,29.85,SW,235,8.1,8.1,35,0.00,,CLR,0.00,VWS V14.01,2013-07-25 01:35:00,
2013-07-24 18:40:00,71.9,44.3,29.85,WSW,253,6.3,8.7,37,0.00,,CLR,0.00,VWS V14.01,2013-07-25 01:40:00,
2013-07-24 18:46:00,72.3,45.3,29.85,WNW,297,6.3,8.1,38,0.00,,CLR,0.00,VWS V14.01,2013-07-25 01:46:00,
2013-07-24 18:51:00,71.9,46.3,29.85,WNW,297,5.4,6.7,40,0.00,,CLR,0.00,VWS V14.01,2013-07-25 01:51:00,
2013-07-24 18:57:00,71.6,46.7,29.85,WNW,284,3.6,8.7,41,0.00,,CLR,0.00,VWS V14.01,2013-07-25 01:57:00,
2013-07-24 19:02:00,71.9,47.0,29.85,WNW,292,8.1,8.3,41,0.00,,CLR,0.00,VWS V14.01,2013-07-25 02:02:00,
2013-07-24 19:08:00,71.4,47.1,29.85,WNW,290,5.4,6.3,42,0.00,,CLR,0.00,VWS V14.01,2013-07-25 02:08:00,
2013-07-24 19:14:00,71.2,47.6,29.85,NW,321,5.8,5.8,43,0.00,,CLR,0.00,VWS V14.01,2013-07-25 02:14:00,
2013-07-24 19:19:00,71.0,47.4,29.85,NW,304,6.3,7.6,43,0.00,,CLR,0.00,VWS V14.01,2013-07-25 02:19:00,
2013-07-24 19:25:00,70.7,46.5,29.85,NW,308,2.2,6.7,42,0.00,,CLR,0.00,VWS V14.01,2013-07-25 02:25:00,
2013-07-24 19:31:00,69.6,46.1,29.85,WNW,287,6.3,6.3,43,0.00,,CLR,0.00,VWS V14.01,2013-07-25 02:31:00,
2013-07-24 19:36:00,68.9,47.3,29.85,West,275,5.8,7.2,46,0.00,,,0.00,VWS V14.01,2013-07-25 02:36:00,
2013-07-24 19:42:00,68.9,47.8,29.85,West,267,3.1,4.0,47,0.00,,,0.00,VWS V14.01,2013-07-25 02:42:00,
2013-07-24 19:48:00,68.9,47.8,29.85,West,272,2.7,4.9,47,0.00,,,0.00,VWS V14.01,2013-07-25 02:48:00,
2013-07-24 19:53:00,68.5,47.5,29.85,WSW,246,3.1,5.4,47,0.00,,,0.00,VWS V14.01,2013-07-25 02:53:00,
2013-07-24 19:59:00,68.7,48.2,29.85,NNW,331,3.6,4.0,48,0.00,,,0.00,VWS V14.01,2013-07-25 02:59:00,
2013-07-24 20:04:00,68.3,47.9,29.85,WNW,301,2.7,4.9,48,0.00,,,0.00,VWS V14.01,2013-07-25 03:04:00,
2013-07-24 20:10:00,68.3,48.5,29.85,WNW,290,2.7,3.6,49,0.00,,,0.00,VWS V14.01,2013-07-25 03:10:00,
2013-07-24 20:16:00,68.2,48.3,29.85,NW,318,2.2,4.0,49,0.00,,,0.00,VWS V14.01,2013-07-25 03:16:00,
2013-07-24 20:21:00,68.2,48.3,29.85,North,353,3.6,4.0,49,0.00,,,0.00,VWS V14.01,2013-07-25 03:21:00,
2013-07-24 20:27:00,68.0,48.7,29.85,NW,305,3.1,3.1,50,0.00,,,0.00,VWS V14.01,2013-07-25 03:27:00,
2013-07-24 20:32:00,67.8,49.0,29.85,WNW,287,4.9,4.9,51,0.00,,,0.00,VWS V14.01,2013-07-25 03:32:00,
2013-07-24 20:37:00,67.6,49.4,29.85,NW,326,3.1,6.3,52,0.00,,CLR,0.00,VWS V14.01,2013-07-25 03:37:00,
2013-07-24 20:42:00,67.3,49.0,29.85,NW,312,4.9,6.3,52,0.00,,CLR,0.00,VWS V14.01,2013-07-25 03:42:00,
2013-07-24 20:48:00,67.1,48.9,29.88,NW,315,5.8,5.8,52,0.00,,CLR,0.00,VWS V14.01,2013-07-25 03:48:00,
2013-07-24 20:53:00,66.7,48.6,29.88,NNW,343,3.6,6.3,52,0.00,,CLR,0.00,VWS V14.01,2013-07-25 03:53:00,
2013-07-24 20:59:00,66.5,48.9,29.88,NNW,330,4.9,6.3,53,0.00,,CLR,0.00,VWS V14.01,2013-07-25 03:59:00,
2013-07-24 21:01:00,66.4,48.7,29.88,North,349,3.6,4.0,53,0.00,,CLR,0.00,VWS V14.01,2013-07-25 04:01:00,
2013-07-24 21:03:00,66.4,48.7,29.88,NW,319,4.0,5.8,53,0.00,,CLR,0.00,VWS V14.01,2013-07-25 04:03:00,
2013-07-24 21:05:00,66.4,49.2,29.88,NW,326,5.4,5.8,54,0.00,,CLR,0.00,VWS V14.01,2013-07-25 04:05:00,
2013-07-24 21:09:00,66.2,49.1,29.88,NW,312,2.7,5.8,54,0.00,,CLR,0.00,VWS V14.01,2013-07-25 04:09:00,
2013-07-24 21:14:00,66.0,48.9,29.88,NW,315,3.6,5.4,54,0.00,,CLR,0.00,VWS V14.01,2013-07-25 04:14:00,
2013-07-24 21:16:00,66.0,48.9,29.88,NNW,345,2.2,3.6,54,0.00,,CLR,0.00,VWS V14.01,2013-07-25 04:16:00,
2013-07-24 21:21:00,66.0,49.4,29.88,NNW,345,3.6,4.0,55,0.00,,CLR,0.00,VWS V14.01,2013-07-25 04:21:00,
2013-07-24 21:27:00,65.8,50.2,29.88,WNW,293,3.6,3.6,57,0.00,,CLR,0.00,VWS V14.01,2013-07-25 04:27:00,
2013-07-24 21:32:00,65.8,50.2,29.88,NW,319,3.6,4.0,57,0.00,,CLR,0.00,VWS V14.01,2013-07-25 04:32:00,
2013-07-24 21:38:00,65.6,50.5,29.88,North,357,5.4,5.4,58,0.00,,SCT250,0.00,VWS V14.01,2013-07-25 04:38:00,
2013-07-24 21:44:00,65.6,50.9,29.88,WNW,298,4.0,4.5,59,0.00,,SCT250,0.00,VWS V14.01,2013-07-25 04:44:00,
2013-07-24 21:49:00,65.5,51.2,29.88,WNW,290,4.0,5.4,60,0.00,,SCT250,0.00,VWS V14.01,2013-07-25 04:49:00,
2013-07-24 21:54:00,65.5,51.2,29.88,NNW,327,2.7,2.7,60,0.00,,SCT250,0.00,VWS V14.01,2013-07-25 04:54:00,
2013-07-24 21:59:00,65.3,51.1,29.88,NW,316,4.0,4.0,60,0.00,,SCT250,0.00,VWS V14.01,2013-07-25 04:59:00,
2013-07-24 22:04:00,65.3,51.1,29.88,NNW,338,3.1,4.0,60,0.00,,SCT250,0.00,VWS V14.01,2013-07-25 05:04:00,
2013-07-24 22:10:00,65.3,51.5,29.88,NW,319,4.0,4.9,61,0.00,,SCT250,0.00,VWS V14.01,2013-07-25 05:10:00,
2013-07-24 22:16:00,65.1,51.3,29.88,NNW,340,0.0,2.7,61,0.00,,SCT250,0.00,VWS V14.01,2013-07-25 05:16:00,
2013-07-24 22:22:00,65.1,51.8,29.88,West,270,4.0,4.0,62,0.00,,SCT250,0.00,VWS V14.01,2013-07-25 05:22:00,
2013-07-24 22:27:00,65.1,52.2,29.88,NNW,327,4.0,5.8,63,0.00,,SCT250,0.00,VWS V14.01,2013-07-25 05:27:00,
2013-07-24 22:33:00,65.1,52.2,29.88,NW,317,5.4,6.3,63,0.00,,SCT250,0.00,VWS V14.01,2013-07-25 05:33:00,
2013-07-24 22:38:00,64.9,52.0,29.88,NW,314,2.7,2.7,63,0.00,,CLR,0.00,VWS V14.01,2013-07-25 05:38:00,
2013-07-24 22:43:00,64.9,52.5,29.88,North,353,5.8,5.8,64,0.00,,CLR,0.00,VWS V14.01,2013-07-25 05:43:00,
2013-07-24 22:48:00,64.7,52.3,29.88,North,350,5.4,5.4,64,0.00,,CLR,0.00,VWS V14.01,2013-07-25 05:48:00,
2013-07-24 22:53:00,64.7,52.3,29.88,NNW,327,2.2,2.2,64,0.00,,CLR,0.00,VWS V14.01,2013-07-25 05:53:00,
2013-07-24 22:58:00,64.7,52.3,29.88,NNW,343,0.0,3.6,64,0.00,,CLR,0.00,VWS V14.01,2013-07-25 05:58:00,
2013-07-24 23:04:00,64.7,52.7,29.88,WNW,285,4.0,4.0,65,0.00,,CLR,0.00,VWS V14.01,2013-07-25 06:04:00,
2013-07-24 23:09:00,64.7,52.7,29.88,NW,325,2.2,3.1,65,0.00,,CLR,0.00,VWS V14.01,2013-07-25 06:09:00,
2013-07-24 23:15:00,64.7,52.7,29.88,NW,312,0.0,0.0,65,0.00,,CLR,0.00,VWS V14.01,2013-07-25 06:15:00,
2013-07-24 23:20:00,64.7,52.7,29.88,WNW,289,2.2,2.2,65,0.00,,CLR,0.00,VWS V14.01,2013-07-25 06:20:00,
2013-07-24 23:26:00,64.7,52.7,29.88,NW,319,0.0,0.0,65,0.00,,CLR,0.00,VWS V14.01,2013-07-25 06:26:00,
2013-07-24 23:32:00,64.6,52.5,29.88,NNW,327,2.7,2.7,65,0.00,,CLR,0.00,VWS V14.01,2013-07-25 06:32:00,
2013-07-24 23:37:00,64.6,52.5,29.88,NNW,344,3.1,3.1,65,0.00,,CLR,0.00,VWS V14.01,2013-07-25 06:37:00,
2013-07-24 23:43:00,64.6,52.5,29.88,NNW,344,0.0,0.0,65,0.00,,CLR,0.00,VWS V14.01,2013-07-25 06:43:00,
2013-07-24 23:48:00,64.6,52.5,29.88,NNW,344,0.0,0.0,65,0.00,,CLR,0.00,VWS V14.01,2013-07-25 06:48:00,
2013-07-24 23:54:00,64.4,52.4,29.88,NNW,344,0.0,0.0,65,0.00,,CLR,0.00,VWS V14.01,2013-07-25 06:54:00,
2013-07-24 23:59:00,64.4,52.4,29.88,NNW,344,0.0,0.0,65,0.00,,CLR,0.00,VWS V14.01,2013-07-25 06:59:00,